Year,Month,Day,Hour,Minute,Value (Times are PST for windspeed in km/hr)
2020,11,05,00,00,14.00
2020,11,05,00,01,8.10
2020,11,05,00,02,13.50
2020,11,05,00,03,13.60
2020,11,05,00,04,5.90
2020,11,05,00,05,6.80
2020,11,05,00,06,3.40
2020,11,05,00,07,3.20
2020,11,05,00,08,6.10
2020,11,05,00,09,3.60
2020,11,05,00,10,3.30
2020,11,05,00,11,3.90
2020,11,05,00,12,4.90
2020,11,05,00,13,4.10
2020,11,05,00,14,5.10
2020,11,05,00,15,4.10
2020,11,05,00,16,2.50
2020,11,05,00,17,2.80
2020,11,05,00,18,5.40
2020,11,05,00,19,1.70
2020,11,05,00,20,6.70
2020,11,05,00,21,2.40
2020,11,05,00,22,7.70
2020,11,05,00,23,14.60
2020,11,05,00,24,6.60
2020,11,05,00,25,5.10
2020,11,05,00,26,2.30
2020,11,05,00,27,1.50
2020,11,05,00,28,2.50
2020,11,05,00,29,1.80
2020,11,05,00,30,3.60
2020,11,05,00,31,5.70
2020,11,05,00,32,2.90
2020,11,05,00,33,3.50
2020,11,05,00,34,5.60
2020,11,05,00,35,4.10
2020,11,05,00,36,5.30
2020,11,05,00,37,6.80
2020,11,05,00,38,1.80
2020,11,05,00,39,5.20
2020,11,05,00,40,7.10
2020,11,05,00,41,5.00
2020,11,05,00,42,5.00
2020,11,05,00,43,4.90
2020,11,05,00,44,2.60
2020,11,05,00,45,3.50
2020,11,05,00,46,3.80
2020,11,05,00,47,4.20
2020,11,05,00,48,6.10
2020,11,05,00,49,0.90
2020,11,05,00,50,5.80
2020,11,05,00,51,14.40
2020,11,05,00,52,7.30
2020,11,05,00,53,3.10
2020,11,05,00,54,6.60
2020,11,05,00,55,8.90
2020,11,05,00,56,4.70
2020,11,05,00,57,2.50
2020,11,05,00,58,3.80
2020,11,05,00,59,4.00
2020,11,05,01,00,3.40
2020,11,05,01,01,4.20
2020,11,05,01,02,4.60
2020,11,05,01,03,6.30
2020,11,05,01,04,4.80
2020,11,05,01,05,4.10
2020,11,05,01,06,6.30
2020,11,05,01,07,5.20
2020,11,05,01,08,4.20
2020,11,05,01,09,7.30
2020,11,05,01,10,6.10
2020,11,05,01,11,5.20
2020,11,05,01,12,5.00
2020,11,05,01,13,5.70
2020,11,05,01,14,3.40
2020,11,05,01,15,4.20
2020,11,05,01,16,7.20
2020,11,05,01,17,5.00
2020,11,05,01,18,4.10
2020,11,05,01,19,4.30
2020,11,05,01,20,4.80
2020,11,05,01,21,5.00
2020,11,05,01,22,5.60
2020,11,05,01,23,4.20
2020,11,05,01,24,1.80
2020,11,05,01,25,0.40
2020,11,05,01,26,0.50
2020,11,05,01,27,4.50
2020,11,05,01,28,5.20
2020,11,05,01,29,2.70
2020,11,05,01,30,1.80
2020,11,05,01,31,0.00
2020,11,05,01,32,1.00
2020,11,05,01,33,2.50
2020,11,05,01,34,1.30
2020,11,05,01,35,8.20
2020,11,05,01,36,6.20
2020,11,05,01,37,0.40
2020,11,05,01,38,0.80
2020,11,05,01,39,2.60
2020,11,05,01,40,3.20
2020,11,05,01,41,1.40
2020,11,05,01,42,2.40
2020,11,05,01,43,3.30
2020,11,05,01,44,4.80
2020,11,05,01,45,5.20
2020,11,05,01,46,2.40
2020,11,05,01,47,5.50
2020,11,05,01,48,4.60
2020,11,05,01,49,3.10
2020,11,05,01,50,3.50
2020,11,05,01,51,2.80
2020,11,05,01,52,0.20
2020,11,05,01,53,2.00
2020,11,05,01,54,1.70
2020,11,05,01,55,1.10
2020,11,05,01,56,2.60
2020,11,05,01,57,2.10
2020,11,05,01,58,1.50
2020,11,05,01,59,0.60
2020,11,05,02,00,1.00
2020,11,05,02,01,1.20
2020,11,05,02,02,3.40
2020,11,05,02,03,5.70
2020,11,05,02,04,3.90
2020,11,05,02,05,4.80
2020,11,05,02,06,1.20
2020,11,05,02,07,1.80
2020,11,05,02,08,1.90
2020,11,05,02,09,1.80
2020,11,05,02,10,3.10
2020,11,05,02,11,0.20
2020,11,05,02,12,1.00
2020,11,05,02,13,3.70
2020,11,05,02,14,3.00
2020,11,05,02,15,0.50
2020,11,05,02,16,1.70
2020,11,05,02,17,2.60
2020,11,05,02,18,3.20
2020,11,05,02,19,3.00
2020,11,05,02,20,2.60
2020,11,05,02,21,3.90
2020,11,05,02,22,5.90
2020,11,05,02,23,7.20
2020,11,05,02,24,2.70
2020,11,05,02,25,6.20
2020,11,05,02,26,2.60
2020,11,05,02,27,1.40
2020,11,05,02,28,2.50
2020,11,05,02,29,0.80
2020,11,05,02,30,1.40
2020,11,05,02,31,3.30
2020,11,05,02,32,0.70
2020,11,05,02,33,0.40
2020,11,05,02,34,6.40
2020,11,05,02,35,3.40
2020,11,05,02,36,3.80
2020,11,05,02,37,0.50
2020,11,05,02,38,7.80
2020,11,05,02,39,3.50
2020,11,05,02,40,10.80
2020,11,05,02,41,4.30
2020,11,05,02,42,5.90
2020,11,05,02,43,4.50
2020,11,05,02,44,1.10
2020,11,05,02,45,6.60
2020,11,05,02,46,4.20
2020,11,05,02,47,1.10
2020,11,05,02,48,4.30
2020,11,05,02,49,6.50
2020,11,05,02,50,6.70
2020,11,05,02,51,7.10
2020,11,05,02,52,2.60
2020,11,05,02,53,3.90
2020,11,05,02,54,7.90
2020,11,05,02,55,2.90
2020,11,05,02,56,6.90
2020,11,05,02,57,3.10
2020,11,05,02,58,0.70
2020,11,05,02,59,3.80
2020,11,05,03,00,3.10
2020,11,05,03,01,2.20
2020,11,05,03,02,3.90
2020,11,05,03,03,3.40
2020,11,05,03,04,3.10
2020,11,05,03,05,5.20
2020,11,05,03,06,1.80
2020,11,05,03,07,6.10
2020,11,05,03,08,4.10
2020,11,05,03,09,4.00
2020,11,05,03,10,6.80
2020,11,05,03,11,5.20
2020,11,05,03,12,4.40
2020,11,05,03,13,6.30
2020,11,05,03,14,2.60
2020,11,05,03,15,9.10
2020,11,05,03,16,5.80
2020,11,05,03,17,7.40
2020,11,05,03,18,6.90
2020,11,05,03,19,4.20
2020,11,05,03,20,2.70
2020,11,05,03,21,2.50
2020,11,05,03,22,5.30
2020,11,05,03,23,2.90
2020,11,05,03,24,8.50
2020,11,05,03,25,7.30
2020,11,05,03,26,7.70
2020,11,05,03,27,7.10
2020,11,05,03,28,6.40
2020,11,05,03,29,6.00
2020,11,05,03,30,7.40
2020,11,05,03,31,1.70
2020,11,05,03,32,1.60
2020,11,05,03,33,1.40
2020,11,05,03,34,4.20
2020,11,05,03,35,3.10
2020,11,05,03,36,3.80
2020,11,05,03,37,3.80
2020,11,05,03,38,5.80
2020,11,05,03,39,2.60
2020,11,05,03,40,8.30
2020,11,05,03,41,2.70
2020,11,05,03,42,8.90
2020,11,05,03,43,12.30
2020,11,05,03,44,8.50
2020,11,05,03,45,3.50
2020,11,05,03,46,5.30
2020,11,05,03,47,4.60
2020,11,05,03,48,2.60
2020,11,05,03,49,8.00
2020,11,05,03,50,6.10
2020,11,05,03,51,0.90
2020,11,05,03,52,3.80
2020,11,05,03,53,6.10
2020,11,05,03,54,3.10
2020,11,05,03,55,5.90
2020,11,05,03,56,4.80
2020,11,05,03,57,6.10
2020,11,05,03,58,8.00
2020,11,05,03,59,8.70
2020,11,05,04,00,7.90
2020,11,05,04,01,17.50
2020,11,05,04,02,4.30
2020,11,05,04,03,8.30
2020,11,05,04,04,9.70
2020,11,05,04,08,6.70
2020,11,05,04,09,8.00
2020,11,05,04,10,4.90
2020,11,05,04,11,6.60
2020,11,05,04,12,6.50
2020,11,05,04,13,8.90
2020,11,05,04,14,10.70
2020,11,05,04,15,10.20
2020,11,05,04,16,7.80
2020,11,05,04,17,5.20
2020,11,05,04,18,3.30
2020,11,05,04,19,6.60
2020,11,05,04,20,11.30
2020,11,05,04,21,7.50
2020,11,05,04,22,8.80
2020,11,05,04,23,5.00
2020,11,05,04,24,2.60
2020,11,05,04,25,5.80
2020,11,05,04,26,6.70
2020,11,05,04,27,3.50
2020,11,05,04,28,7.80
2020,11,05,04,29,3.20
2020,11,05,04,30,1.80
2020,11,05,04,31,3.40
2020,11,05,04,32,4.80
2020,11,05,04,33,3.80
2020,11,05,04,34,3.70
2020,11,05,04,35,2.80
2020,11,05,04,36,2.60
2020,11,05,04,37,4.30
2020,11,05,04,38,5.10
2020,11,05,04,39,3.40
2020,11,05,04,40,3.70
2020,11,05,04,41,4.80
2020,11,05,04,42,4.10
2020,11,05,04,43,6.60
2020,11,05,04,44,5.30
2020,11,05,04,45,5.90
2020,11,05,04,46,2.50
2020,11,05,04,47,3.10
2020,11,05,04,48,5.00
2020,11,05,04,49,3.10
2020,11,05,04,50,4.10
2020,11,05,04,51,8.40
2020,11,05,04,52,3.50
2020,11,05,04,53,3.40
2020,11,05,04,54,2.30
2020,11,05,04,55,2.00
2020,11,05,04,56,1.70
2020,11,05,04,57,3.40
2020,11,05,04,58,4.30
2020,11,05,04,59,2.10
2020,11,05,05,00,4.00
2020,11,05,05,01,4.10
2020,11,05,05,02,1.30
2020,11,05,05,03,3.20
2020,11,05,05,04,7.10
2020,11,05,05,05,2.60
2020,11,05,05,06,1.20
2020,11,05,05,07,4.40
2020,11,05,05,08,2.30
2020,11,05,05,09,0.70
2020,11,05,05,10,1.50
2020,11,05,05,11,1.20
2020,11,05,05,12,1.50
2020,11,05,05,13,3.10
2020,11,05,05,14,1.20
2020,11,05,05,15,0.40
2020,11,05,05,16,3.40
2020,11,05,05,17,2.30
2020,11,05,05,18,2.50
2020,11,05,05,19,0.60
2020,11,05,05,20,1.60
2020,11,05,05,21,0.20
2020,11,05,05,22,7.20
2020,11,05,05,23,5.50
2020,11,05,05,24,4.40
2020,11,05,05,25,6.60
2020,11,05,05,26,10.40
2020,11,05,05,27,6.60
2020,11,05,05,28,3.80
2020,11,05,05,29,7.00
2020,11,05,05,30,9.70
2020,11,05,05,31,17.60
2020,11,05,05,32,6.30
2020,11,05,05,33,9.20
2020,11,05,05,34,5.80
2020,11,05,05,35,2.90
2020,11,05,05,36,5.80
2020,11,05,05,37,1.60
2020,11,05,05,38,5.00
2020,11,05,05,39,1.30
2020,11,05,05,40,4.40
2020,11,05,05,41,4.90
2020,11,05,05,42,2.90
2020,11,05,05,43,4.20
2020,11,05,05,44,2.50
2020,11,05,05,45,5.70
2020,11,05,05,46,8.70
2020,11,05,05,47,2.60
2020,11,05,05,48,2.30
2020,11,05,05,49,4.10
2020,11,05,05,50,3.40
2020,11,05,05,51,1.70
2020,11,05,05,52,5.90
2020,11,05,05,53,4.50
2020,11,05,05,54,4.90
2020,11,05,05,55,1.90
2020,11,05,05,56,2.60
2020,11,05,05,57,4.10
2020,11,05,05,58,3.10
2020,11,05,05,59,4.30
2020,11,05,06,00,1.50
2020,11,05,06,01,1.70
2020,11,05,06,02,0.30
2020,11,05,06,03,0.00
2020,11,05,06,04,0.00
2020,11,05,06,05,0.50
2020,11,05,06,06,1.70
2020,11,05,06,07,1.80
2020,11,05,06,08,0.20
2020,11,05,06,09,1.80
2020,11,05,06,10,1.00
2020,11,05,06,11,5.20
2020,11,05,06,12,0.50
2020,11,05,06,13,0.50
2020,11,05,06,14,2.00
2020,11,05,06,15,0.30
2020,11,05,06,16,0.40
2020,11,05,06,17,4.00
2020,11,05,06,18,2.90
2020,11,05,06,19,6.10
2020,11,05,06,20,4.80
2020,11,05,06,21,2.50
2020,11,05,06,22,3.90
2020,11,05,06,23,3.80
2020,11,05,06,24,4.80
2020,11,05,06,25,5.70
2020,11,05,06,26,6.20
2020,11,05,06,27,6.10
2020,11,05,06,28,6.60
2020,11,05,06,29,5.60
2020,11,05,06,30,7.20
2020,11,05,06,31,7.60
2020,11,05,06,32,3.40
2020,11,05,06,33,6.20
2020,11,05,06,34,8.30
2020,11,05,06,35,5.70
2020,11,05,06,36,2.60
2020,11,05,06,37,6.00
2020,11,05,06,38,6.50
2020,11,05,06,39,4.80
2020,11,05,06,40,4.70
2020,11,05,06,41,8.20
2020,11,05,06,42,1.80
2020,11,05,06,43,4.10
2020,11,05,06,44,4.10
2020,11,05,06,45,5.40
2020,11,05,06,46,2.80
2020,11,05,06,47,5.60
2020,11,05,06,48,6.70
2020,11,05,06,49,2.40
2020,11,05,06,50,6.40
2020,11,05,06,51,7.60
2020,11,05,06,52,6.40
2020,11,05,06,53,8.20
2020,11,05,06,54,5.60
2020,11,05,06,55,6.40
2020,11,05,06,56,5.60
2020,11,05,06,57,7.10
2020,11,05,06,58,8.60
2020,11,05,06,59,5.40
2020,11,05,07,00,5.00
2020,11,05,07,01,7.40
2020,11,05,07,02,6.70
2020,11,05,07,03,8.60
2020,11,05,07,04,8.30
2020,11,05,07,05,7.30
2020,11,05,07,06,8.90
2020,11,05,07,07,5.00
2020,11,05,07,08,5.70
2020,11,05,07,09,5.70
2020,11,05,07,10,7.30
2020,11,05,07,11,5.30
2020,11,05,07,12,6.30
2020,11,05,07,13,5.40
2020,11,05,07,14,4.30
2020,11,05,07,15,4.50
2020,11,05,07,16,3.20
2020,11,05,07,17,4.20
2020,11,05,07,18,4.20
2020,11,05,07,19,7.10
2020,11,05,07,20,4.90
2020,11,05,07,21,5.50
2020,11,05,07,22,5.90
2020,11,05,07,23,5.90
2020,11,05,07,24,3.40
2020,11,05,07,25,4.10
2020,11,05,07,26,4.60
2020,11,05,07,27,4.90
2020,11,05,07,28,1.80
2020,11,05,07,29,3.20
2020,11,05,07,30,4.30
2020,11,05,07,31,5.70
2020,11,05,07,32,4.50
2020,11,05,07,33,5.00
2020,11,05,07,34,5.30
2020,11,05,07,35,6.50
2020,11,05,07,36,3.80
2020,11,05,07,37,5.40
2020,11,05,07,38,5.90
2020,11,05,07,39,4.80
2020,11,05,07,40,5.70
2020,11,05,07,41,2.30
2020,11,05,07,42,4.10
2020,11,05,07,43,5.60
2020,11,05,07,44,6.00
2020,11,05,07,45,5.90
2020,11,05,07,46,5.50
2020,11,05,07,47,6.10
2020,11,05,07,48,5.90
2020,11,05,07,49,3.60
2020,11,05,07,50,6.10
2020,11,05,07,51,4.30
2020,11,05,07,52,4.10
2020,11,05,07,53,6.80
2020,11,05,07,54,6.60
2020,11,05,07,55,8.30
2020,11,05,07,56,6.70
2020,11,05,07,57,6.50
2020,11,05,07,58,3.90
2020,11,05,07,59,7.40
2020,11,05,08,00,5.70
2020,11,05,08,01,7.40
2020,11,05,08,02,11.60
2020,11,05,08,03,9.00
2020,11,05,08,04,8.30
2020,11,05,08,05,6.60
2020,11,05,08,06,9.90
2020,11,05,08,07,2.70
2020,11,05,08,08,1.00
2020,11,05,08,09,2.20
2020,11,05,08,10,1.50
2020,11,05,08,11,0.00
2020,11,05,08,12,0.90
2020,11,05,08,13,2.80
2020,11,05,08,14,1.60
2020,11,05,08,15,0.30
2020,11,05,08,16,3.20
2020,11,05,08,17,2.70
2020,11,05,08,18,2.70
2020,11,05,08,19,1.50
2020,11,05,08,20,3.70
2020,11,05,08,21,4.10
2020,11,05,08,22,0.20
2020,11,05,08,23,0.60
2020,11,05,08,24,1.10
2020,11,05,08,25,0.60
2020,11,05,08,26,0.50
2020,11,05,08,27,0.70
2020,11,05,08,28,1.10
2020,11,05,08,29,0.80
2020,11,05,08,30,1.00
2020,11,05,08,31,0.80
2020,11,05,08,32,0.60
2020,11,05,08,33,1.20
2020,11,05,08,34,0.30
2020,11,05,08,35,2.60
2020,11,05,08,36,2.10
2020,11,05,08,37,1.30
2020,11,05,08,38,3.60
2020,11,05,08,39,2.70
2020,11,05,08,40,1.60
2020,11,05,08,41,1.70
2020,11,05,08,42,0.00
2020,11,05,08,43,0.20
2020,11,05,08,44,0.70
2020,11,05,08,45,1.90
2020,11,05,08,46,5.40
2020,11,05,08,47,7.70
2020,11,05,08,48,5.80
2020,11,05,08,49,2.00
2020,11,05,08,50,4.00
2020,11,05,08,51,3.50
2020,11,05,08,52,4.10
2020,11,05,08,53,5.10
2020,11,05,08,54,4.10
2020,11,05,08,55,2.20
2020,11,05,08,56,2.00
2020,11,05,08,57,5.70
2020,11,05,08,58,3.70
2020,11,05,08,59,2.50
2020,11,05,09,00,0.20
2020,11,05,09,01,0.60
2020,11,05,09,02,2.50
2020,11,05,09,03,1.90
2020,11,05,09,04,0.90
2020,11,05,09,05,1.50
2020,11,05,09,06,2.70
2020,11,05,09,07,3.80
2020,11,05,09,08,0.60
2020,11,05,09,09,0.50
2020,11,05,09,10,0.00
2020,11,05,09,11,1.10
2020,11,05,09,12,0.10
2020,11,05,09,13,0.00
2020,11,05,09,14,0.00
2020,11,05,09,15,0.00
2020,11,05,09,16,1.70
2020,11,05,09,17,1.70
2020,11,05,09,18,0.30
2020,11,05,09,19,0.20
2020,11,05,09,20,0.30
2020,11,05,09,21,0.50
2020,11,05,09,22,4.70
2020,11,05,09,23,3.50
2020,11,05,09,24,3.10
2020,11,05,09,25,4.40
2020,11,05,09,26,1.20
2020,11,05,09,27,1.00
2020,11,05,09,28,0.30
2020,11,05,09,29,0.30
2020,11,05,09,30,1.80
2020,11,05,09,31,2.20
2020,11,05,09,32,1.00
2020,11,05,09,33,0.10
2020,11,05,09,34,3.20
2020,11,05,09,35,2.40
2020,11,05,09,36,2.90
2020,11,05,09,37,0.60
2020,11,05,09,38,0.00
2020,11,05,09,39,0.00
2020,11,05,09,40,0.60
2020,11,05,09,41,2.20
2020,11,05,09,42,1.40
2020,11,05,09,43,2.50
2020,11,05,09,44,1.80
2020,11,05,09,45,6.20
2020,11,05,09,46,6.00
2020,11,05,09,47,3.80
2020,11,05,09,48,5.00
2020,11,05,09,49,6.30
2020,11,05,09,50,5.00
2020,11,05,09,51,2.20
2020,11,05,09,52,5.20
2020,11,05,09,53,3.70
2020,11,05,09,54,2.10
2020,11,05,09,55,6.40
2020,11,05,09,56,6.20
2020,11,05,09,57,3.60
2020,11,05,09,58,3.90
2020,11,05,09,59,7.00
2020,11,05,10,00,3.90
2020,11,05,10,01,4.50
2020,11,05,10,02,6.40
2020,11,05,10,03,5.10
2020,11,05,10,04,6.70
2020,11,05,10,05,5.50
2020,11,05,10,06,3.10
2020,11,05,10,07,4.50
2020,11,05,10,08,7.50
2020,11,05,10,09,5.30
2020,11,05,10,10,5.50
2020,11,05,10,11,7.20
2020,11,05,10,12,8.40
2020,11,05,10,13,4.30
2020,11,05,10,14,6.90
2020,11,05,10,15,8.20
2020,11,05,10,16,5.50
2020,11,05,10,17,7.20
2020,11,05,10,18,3.50
2020,11,05,10,19,3.10
2020,11,05,10,20,5.90
2020,11,05,10,21,4.20
2020,11,05,10,22,2.80
2020,11,05,10,23,3.80
2020,11,05,10,24,4.60
2020,11,05,10,25,1.80
2020,11,05,10,26,6.40
2020,11,05,10,27,2.80
2020,11,05,10,28,3.30
2020,11,05,10,29,5.70
2020,11,05,10,30,4.70
2020,11,05,10,31,4.00
2020,11,05,10,32,6.20
2020,11,05,10,33,4.50
2020,11,05,10,34,5.20
2020,11,05,10,35,3.50
2020,11,05,10,36,3.00
2020,11,05,10,37,5.10
2020,11,05,10,38,5.40
2020,11,05,10,39,2.10
2020,11,05,10,40,9.20
2020,11,05,10,41,3.50
2020,11,05,10,42,1.60
2020,11,05,10,43,4.10
2020,11,05,10,44,8.90
2020,11,05,10,45,5.40
2020,11,05,10,46,6.30
2020,11,05,10,47,7.20
2020,11,05,10,48,8.80
2020,11,05,10,49,8.70
2020,11,05,10,50,5.70
2020,11,05,10,51,3.70
2020,11,05,10,52,4.50
2020,11,05,10,53,6.70
2020,11,05,10,54,8.10
2020,11,05,10,55,7.70
2020,11,05,10,56,8.80
2020,11,05,10,57,6.70
2020,11,05,10,58,6.00
2020,11,05,10,59,4.30
2020,11,05,11,00,4.40
2020,11,05,11,01,3.10
2020,11,05,11,02,7.60
2020,11,05,11,03,5.90
2020,11,05,11,04,3.70
2020,11,05,11,05,10.50
2020,11,05,11,06,3.80
2020,11,05,11,07,8.90
2020,11,05,11,08,7.00
2020,11,05,11,09,4.30
2020,11,05,11,10,3.40
2020,11,05,11,11,6.50
2020,11,05,11,12,3.70
2020,11,05,11,13,3.80
2020,11,05,11,14,7.20
2020,11,05,11,15,5.40
2020,11,05,11,16,6.00
2020,11,05,11,17,6.70
2020,11,05,11,18,5.30
2020,11,05,11,19,8.60
2020,11,05,11,20,7.00
2020,11,05,11,21,5.60
2020,11,05,11,22,7.90
2020,11,05,11,23,4.20
2020,11,05,11,24,4.40
2020,11,05,11,25,3.90
2020,11,05,11,26,2.80
2020,11,05,11,27,2.70
2020,11,05,11,28,2.70
2020,11,05,11,29,7.30
2020,11,05,11,30,6.70
2020,11,05,11,31,3.10
2020,11,05,11,32,4.40
2020,11,05,11,33,4.40
2020,11,05,11,34,5.00
2020,11,05,11,35,3.40
2020,11,05,11,36,1.40
2020,11,05,11,37,3.50
2020,11,05,11,38,5.30
2020,11,05,11,39,2.90
2020,11,05,11,40,3.40
2020,11,05,11,41,3.40
2020,11,05,11,42,5.80
2020,11,05,11,43,7.90
2020,11,05,11,44,3.80
2020,11,05,11,45,5.00
2020,11,05,11,46,3.70
2020,11,05,11,47,6.60
2020,11,05,11,48,4.00
2020,11,05,11,49,2.60
2020,11,05,11,50,5.90
2020,11,05,11,51,5.60
2020,11,05,11,52,3.40
2020,11,05,11,53,3.60
2020,11,05,11,54,1.80
2020,11,05,11,55,4.30
2020,11,05,11,56,2.30
2020,11,05,11,57,2.40
2020,11,05,11,58,2.90
2020,11,05,11,59,2.80
2020,11,05,12,00,2.60
2020,11,05,12,01,4.10
2020,11,05,12,02,1.70
2020,11,05,12,03,3.30
2020,11,05,12,04,0.30
2020,11,05,12,05,0.60
2020,11,05,12,06,0.70
2020,11,05,12,07,1.60
2020,11,05,12,08,0.70
2020,11,05,12,09,1.80
2020,11,05,12,10,0.00
2020,11,05,12,11,0.00
2020,11,05,12,12,0.50
2020,11,05,12,13,0.90
2020,11,05,12,14,0.10
2020,11,05,12,15,0.00
2020,11,05,12,16,1.00
2020,11,05,12,17,0.50
2020,11,05,12,18,0.30
2020,11,05,12,19,0.10
2020,11,05,12,20,0.00
2020,11,05,12,21,0.00
2020,11,05,12,22,0.00
2020,11,05,12,23,0.20
2020,11,05,12,24,2.30
2020,11,05,12,25,0.90
2020,11,05,12,26,0.10
2020,11,05,12,27,0.20
2020,11,05,12,28,3.20
2020,11,05,12,29,3.10
2020,11,05,12,30,4.30
2020,11,05,12,31,0.80
2020,11,05,12,32,0.20
2020,11,05,12,33,0.00
2020,11,05,12,34,0.00
2020,11,05,12,35,0.20
2020,11,05,12,36,0.40
2020,11,05,12,37,0.90
2020,11,05,12,38,2.30
2020,11,05,12,39,3.20
2020,11,05,12,40,2.80
2020,11,05,12,41,1.20
2020,11,05,12,42,1.30
2020,11,05,12,43,1.50
2020,11,05,12,44,0.90
2020,11,05,12,45,3.50
2020,11,05,12,46,4.50
2020,11,05,12,47,2.80
2020,11,05,12,48,4.50
2020,11,05,12,49,1.60
2020,11,05,12,50,2.10
2020,11,05,12,51,0.70
2020,11,05,12,52,0.90
2020,11,05,12,53,0.80
2020,11,05,12,54,0.40
2020,11,05,12,55,0.00
2020,11,05,12,56,3.20
2020,11,05,12,57,1.60
2020,11,05,12,58,2.80
2020,11,05,12,59,1.80
2020,11,05,13,00,2.20
2020,11,05,13,01,1.90
2020,11,05,13,02,1.10
2020,11,05,13,03,0.60
2020,11,05,13,04,2.80
2020,11,05,13,05,2.70
2020,11,05,13,06,2.90
2020,11,05,13,07,1.80
2020,11,05,13,08,1.20
2020,11,05,13,09,0.70
2020,11,05,13,10,0.20
2020,11,05,13,11,0.30
2020,11,05,13,12,1.50
2020,11,05,13,13,0.60
2020,11,05,13,14,1.00
2020,11,05,13,15,0.80
2020,11,05,13,16,1.20
2020,11,05,13,17,2.80
2020,11,05,13,18,3.00
2020,11,05,13,19,1.30
2020,11,05,13,20,3.30
2020,11,05,13,21,3.40
2020,11,05,13,22,3.00
2020,11,05,13,23,0.20
2020,11,05,13,24,0.20
2020,11,05,13,25,0.00
2020,11,05,13,26,0.00
2020,11,05,13,27,0.00
2020,11,05,13,28,0.00
2020,11,05,13,29,0.00
2020,11,05,13,30,0.00
2020,11,05,13,31,0.40
2020,11,05,13,32,0.20
2020,11,05,13,33,0.70
2020,11,05,13,34,0.00
2020,11,05,13,35,0.00
2020,11,05,13,36,0.10
2020,11,05,13,37,2.00
2020,11,05,13,38,0.40
2020,11,05,13,39,0.10
2020,11,05,13,40,0.10
2020,11,05,13,41,0.10
2020,11,05,13,42,0.00
2020,11,05,13,43,0.10
2020,11,05,13,44,0.00
2020,11,05,13,45,0.00
2020,11,05,13,46,0.00
2020,11,05,13,47,0.00
2020,11,05,13,48,0.10
2020,11,05,13,49,0.10
2020,11,05,13,50,0.10
2020,11,05,13,51,0.70
2020,11,05,13,52,0.10
2020,11,05,13,53,1.10
2020,11,05,13,54,1.60
2020,11,05,13,55,3.10
2020,11,05,13,56,3.00
2020,11,05,13,57,1.70
2020,11,05,13,58,0.30
2020,11,05,13,59,0.90
2020,11,05,14,00,0.10
2020,11,05,14,01,0.50
2020,11,05,14,02,1.60
2020,11,05,14,03,1.50
2020,11,05,14,04,1.70
2020,11,05,14,05,1.90
2020,11,05,14,06,3.40
2020,11,05,14,07,1.60
2020,11,05,14,08,1.40
2020,11,05,14,09,0.10
2020,11,05,14,10,0.00
2020,11,05,14,11,0.00
2020,11,05,14,12,0.70
2020,11,05,14,13,0.30
2020,11,05,14,14,1.50
2020,11,05,14,15,0.40
2020,11,05,14,16,0.00
2020,11,05,14,17,1.80
2020,11,05,14,18,3.00
2020,11,05,14,19,2.10
2020,11,05,14,20,1.80
2020,11,05,14,21,3.50
2020,11,05,14,22,0.10
2020,11,05,14,23,0.90
2020,11,05,14,24,0.10
2020,11,05,14,25,0.00
2020,11,05,14,26,0.10
2020,11,05,14,27,0.00
2020,11,05,14,28,0.70
2020,11,05,14,29,2.50
2020,11,05,14,30,0.20
2020,11,05,14,31,2.70
2020,11,05,14,32,0.20
2020,11,05,14,33,0.00
2020,11,05,14,34,1.80
2020,11,05,14,35,1.60
2020,11,05,14,36,1.10
2020,11,05,14,37,1.10
2020,11,05,14,38,0.70
2020,11,05,14,39,1.10
2020,11,05,14,40,0.40
2020,11,05,14,41,0.30
2020,11,05,14,42,3.40
2020,11,05,14,43,2.40
2020,11,05,14,44,3.50
2020,11,05,14,45,0.90
2020,11,05,14,46,0.10
2020,11,05,14,47,2.40
2020,11,05,14,48,1.40
2020,11,05,14,49,1.20
2020,11,05,14,50,0.20
2020,11,05,14,51,0.00
2020,11,05,14,52,0.30
2020,11,05,14,53,0.10
2020,11,05,14,54,0.10
2020,11,05,14,55,0.20
2020,11,05,14,56,0.00
2020,11,05,14,57,0.10
2020,11,05,14,58,0.50
2020,11,05,14,59,1.50
2020,11,05,15,00,1.80
2020,11,05,15,01,2.30
2020,11,05,15,02,0.50
2020,11,05,15,03,0.00
2020,11,05,15,04,0.40
2020,11,05,15,05,3.70
2020,11,05,15,06,1.90
2020,11,05,15,07,1.20
2020,11,05,15,08,0.60
2020,11,05,15,09,0.00
2020,11,05,15,10,0.00
2020,11,05,15,11,0.00
2020,11,05,15,12,0.00
2020,11,05,15,13,0.00
2020,11,05,15,14,0.00
2020,11,05,15,15,0.00
2020,11,05,15,16,0.00
2020,11,05,15,17,0.00
2020,11,05,15,18,0.00
2020,11,05,15,19,0.00
2020,11,05,15,20,0.00
2020,11,05,15,21,0.00
2020,11,05,15,22,0.50
2020,11,05,15,23,0.00
2020,11,05,15,24,0.00
2020,11,05,15,25,0.00
2020,11,05,15,26,0.10
2020,11,05,15,27,0.40
2020,11,05,15,28,0.00
2020,11,05,15,29,0.00
2020,11,05,15,30,0.00
2020,11,05,15,31,0.00
2020,11,05,15,32,0.00
2020,11,05,15,33,0.00
2020,11,05,15,34,0.00
2020,11,05,15,35,0.00
2020,11,05,15,36,0.00
2020,11,05,15,37,0.40
2020,11,05,15,38,0.70
2020,11,05,15,39,0.30
2020,11,05,15,40,0.50
2020,11,05,15,41,0.00
2020,11,05,15,42,0.10
2020,11,05,15,43,0.20
2020,11,05,15,44,0.20
2020,11,05,15,45,0.00
2020,11,05,15,46,0.00
2020,11,05,15,47,0.00
2020,11,05,15,48,0.10
2020,11,05,15,49,0.10
2020,11,05,15,50,0.00
2020,11,05,15,51,0.00
2020,11,05,15,52,0.00
2020,11,05,15,53,0.00
2020,11,05,15,54,0.00
2020,11,05,15,55,0.00
2020,11,05,15,56,0.00
2020,11,05,15,57,0.00
2020,11,05,15,58,0.00
2020,11,05,15,59,0.00
2020,11,05,16,00,0.00
2020,11,05,16,01,0.00
2020,11,05,16,02,0.00
2020,11,05,16,03,0.00
2020,11,05,16,04,0.00
2020,11,05,16,05,0.00
2020,11,05,16,06,0.00
2020,11,05,16,07,0.00
2020,11,05,16,08,0.00
2020,11,05,16,09,0.00
2020,11,05,16,10,0.00
2020,11,05,16,11,0.00
2020,11,05,16,12,0.00
2020,11,05,16,13,0.00
2020,11,05,16,14,0.00
2020,11,05,16,15,0.00
2020,11,05,16,16,0.00
2020,11,05,16,17,0.00
2020,11,05,16,18,0.00
2020,11,05,16,19,0.00
2020,11,05,16,20,0.00
2020,11,05,16,21,0.00
2020,11,05,16,22,0.00
2020,11,05,16,23,0.00
2020,11,05,16,24,0.00
2020,11,05,16,25,0.00
2020,11,05,16,26,0.00
2020,11,05,16,27,0.00
2020,11,05,16,28,0.00
2020,11,05,16,29,0.00
2020,11,05,16,30,0.00
2020,11,05,16,31,0.00
2020,11,05,16,32,0.00
2020,11,05,16,33,0.00
2020,11,05,16,34,0.00
2020,11,05,16,35,0.00
2020,11,05,16,36,0.00
2020,11,05,16,37,0.00
2020,11,05,16,38,0.00
2020,11,05,16,39,0.00
2020,11,05,16,40,0.00
2020,11,05,16,41,0.00
2020,11,05,16,42,0.00
2020,11,05,16,43,0.00
2020,11,05,16,44,0.00
2020,11,05,16,45,0.00
2020,11,05,16,46,0.00
2020,11,05,16,47,0.00
2020,11,05,16,48,0.00
2020,11,05,16,49,0.00
2020,11,05,16,50,0.00
2020,11,05,16,51,0.00
2020,11,05,16,52,0.00
2020,11,05,16,53,0.00
2020,11,05,16,54,0.00
2020,11,05,16,55,0.00
2020,11,05,16,56,0.00
2020,11,05,16,57,0.00
2020,11,05,16,58,0.00
2020,11,05,16,59,0.00
2020,11,05,17,00,0.00
2020,11,05,17,01,0.00
2020,11,05,17,02,0.00
2020,11,05,17,03,0.00
2020,11,05,17,04,0.00
2020,11,05,17,05,0.50
2020,11,05,17,06,0.00
2020,11,05,17,07,0.00
2020,11,05,17,08,0.00
2020,11,05,17,09,0.00
2020,11,05,17,10,0.00
2020,11,05,17,11,0.00
2020,11,05,17,12,0.00
2020,11,05,17,13,0.00
2020,11,05,17,14,0.00
2020,11,05,17,15,0.00
2020,11,05,17,16,0.00
2020,11,05,17,17,0.10
2020,11,05,17,18,0.00
2020,11,05,17,19,0.00
2020,11,05,17,20,0.10
2020,11,05,17,21,0.10
2020,11,05,17,22,0.00
2020,11,05,17,23,0.00
2020,11,05,17,24,0.00
2020,11,05,17,25,0.00
2020,11,05,17,26,0.00
2020,11,05,17,27,0.00
2020,11,05,17,28,0.00
2020,11,05,17,29,0.00
2020,11,05,17,30,0.00
2020,11,05,17,31,0.00
2020,11,05,17,32,0.00
2020,11,05,17,33,0.00
2020,11,05,17,34,0.00
2020,11,05,17,35,0.50
2020,11,05,17,36,1.70
2020,11,05,17,37,1.50
2020,11,05,17,38,1.20
2020,11,05,17,39,0.50
2020,11,05,17,40,0.50
2020,11,05,17,41,0.60
2020,11,05,17,42,0.80
2020,11,05,17,43,0.00
2020,11,05,17,44,0.00
2020,11,05,17,45,0.80
2020,11,05,17,46,0.90
2020,11,05,17,47,0.20
2020,11,05,17,48,0.00
2020,11,05,17,49,0.00
2020,11,05,17,50,0.00
2020,11,05,17,51,0.00
2020,11,05,17,52,0.00
2020,11,05,17,53,0.00
2020,11,05,17,54,0.00
2020,11,05,17,55,0.00
2020,11,05,17,56,0.00
2020,11,05,17,57,0.00
2020,11,05,17,58,0.10
2020,11,05,17,59,0.00
2020,11,05,18,00,0.00
2020,11,05,18,01,0.00
2020,11,05,18,02,0.00
2020,11,05,18,03,0.00
2020,11,05,18,04,0.00
2020,11,05,18,05,0.30
2020,11,05,18,06,1.20
2020,11,05,18,07,2.60
2020,11,05,18,08,0.50